GFSFLT2_925_temp_273.txt.gz
Temp
22 22 22 22 22 22 22 21 22 21 21 21 21 21 21 21 21 21 21 20 20 20 19 19 19 20 20 19 19 19 19 18
21 22 21 21 21 22 22 21 21 21 21 21 21 21 20 21 21 21 21 21 21 20 20 19 20 20 20 20 20 19 18 18
19 21 21 21 21 21 21 21 21 21 21 20 20 20 20 20 20 21 21 21 21 21 20 19 19 20 20 20 20 20 19 18
19 20 20 20 20 20 20 20 20 19 20 20 20 20 20 20 20 20 21 21 21 21 20 20 20 20 19 19 20 20 19 18
19 20 20 20 19 19 19 19 19 19 19 20 20 20 19 19 20 20 20 21 21 21 21 20 20 20 20 20 19 20 20 19
18 19 18 19 19 18 18 19 19 19 19 19 19 20 19 19 19 20 20 21 21 21 21 21 21 20 20 20 19 20 20 19
18 19 18 18 18 18 18 18 18 19 19 19 19 19 20 20 19 19 20 21 21 21 22 22 21 21 21 21 20 19 20 20
18 18 18 18 18 18 18 18 19 20 19 20 19 19 20 19 20 20 20 20 21 21 22 22 22 21 21 21 21 20 19 20
20 18 18 18 18 18 18 18 20 20 19 20 20 19 19 20 20 20 20 20 20 21 21 22 22 21 21 21 21 20 19 20
22 20 19 18 18 18 17 18 20 20 20 20 20 20 19 19 20 20 20 20 20 21 21 21 21 21 21 21 21 20 20 20
21 19 18 19 18 18 18 17 19 20 20 20 20 20 20 19 20 20 20 20 20 20 20 21 21 21 21 21 21 21 21 20
21 19 19 19 18 18 17 17 18 19 21 21 20 20 20 20 20 20 20 20 20 20 20 20 21 21 20 20 20 20 20 21
17 18 18 19 18 18 17 17 18 18 19 20 21 21 20 20 20 20 20 20 20 20 20 20 20 21 19 18 19 18 19 19
13 16 18 18 18 18 18 18 18 19 18 18 19 20 21 21 20 20 20 20 20 20 20 19 20 20 19 18 15 17 17 17
10 12 14 16 18 18 18 18 18 17 17 18 19 20 21 21 20 20 20 20 20 20 20 20 19 20 20 20 15 16 16 16
10 11 13 15 17 18 18 19 19 18 18 19 19 20 19 19 19 20 20 20 20 21 21 21 19 19 19 21 21 19 15 16
9 10 11 13 15 16 18 18 19 20 19 18 18 18 19 19 18 20 19 20 20 20 20 20 20 19 19 19 19 18 19 15
9 9 10 11 12 14 15 16 18 20 20 19 18 18 19 19 18 18 19 19 20 20 21 21 20 20 20 20 20 19 16 16
8 8 9 9 10 11 12 14 16 18 19 20 19 18 18 18 18 19 18 19 19 19 20 20 20 19 20 20 19 19 20 19
8 8 8 9 8 9 10 11 12 15 18 19 19 19 18 18 18 19 19 18 19 19 19 20 19 19 19 20 19 19 19 20

GFSFLT2_925_temp_279.txt.gz
Temp
20 20 21 21 22 22 22 21 21 21 20 21 21 20 20 20 19 20 20 20 20 20 20 19 19 19 18 18 18 18 17 17
20 20 21 21 21 21 21 21 21 21 20 20 20 20 20 20 20 20 20 20 20 20 20 20 20 20 19 19 18 18 17 17
18 19 20 20 21 20 20 20 20 20 20 20 19 18 19 19 19 20 20 20 20 20 20 20 20 20 20 19 19 17 17 17
17 18 18 20 19 20 20 20 19 19 20 19 18 18 18 19 19 19 19 20 20 20 20 20 19 18 18 19 17 17 17 17
18 17 18 18 18 19 19 19 19 19 20 20 19 18 18 18 18 18 18 19 19 19 19 19 19 19 18 18 18 18 17 17
18 18 18 17 18 19 18 19 19 19 19 19 19 18 17 17 18 18 18 18 19 19 19 20 20 19 19 19 19 17 17 17
19 19 18 18 17 18 17 17 18 19 19 19 19 19 18 17 17 17 18 19 19 20 20 20 20 20 19 19 19 18 17 17
16 18 18 17 18 18 17 17 17 18 19 20 19 19 19 17 17 18 17 18 19 19 20 20 20 20 20 20 19 18 18 17
15 16 18 18 18 18 19 18 17 17 17 20 20 20 20 20 19 19 17 18 19 19 19 19 19 20 20 20 19 18 18 18
12 14 17 18 18 18 17 17 17 16 16 17 19 20 20 19 20 20 19 19 18 17 18 18 18 18 19 19 19 18 17 18
11 13 15 16 17 17 17 18 17 17 17 17 17 19 20 19 18 19 20 19 19 18 17 18 18 18 19 19 18 18 17 17
10 10 13 14 16 17 17 17 17 17 17 17 16 17 18 19 17 18 19 18 18 18 18 17 18 19 19 19 18 18 17 17
9 10 10 12 14 14 17 17 17 17 17 17 17 18 18 18 17 18 19 17 17 19 19 17 17 18 18 18 18 17 17 17
8 9 9 10 11 12 13 16 17 17 17 17 17 17 18 18 18 17 17 17 16 17 18 17 18 17 20 20 21 20 17 17
8 8 9 9 9 10 13 16 17 17 17 17 17 17 17 18 17 17 16 17 17 17 17 17 19 17 18 21 21 22 21 19
8 8 8 8 8 9 9 11 12 16 17 17 17 16 16 17 17 16 16 17 17 17 16 17 17 19 17 19 18 19 22 21
8 8 8 8 8 8 9 9 10 12 14 16 17 16 16 16 17 16 16 17 17 17 17 17 17 18 18 19 19 19 18 20
8 8 8 8 7 7 8 8 9 10 11 13 15 16 16 16 16 16 16 16 16 17 17 17 17 17 19 19 20 19 20 19
8 8 8 8 7 7 7 7 8 9 10 11 12 14 16 16 16 16 16 16 16 16 16 16 17 17 17 18 19 20 20 20
8 8 8 8 7 7 7 7 7 8 8 9 11 12 13 15 16 16 16 16 16 16 16 16 16 16 17 17 18 19 19 20

GFSFLT2_925_temp_282.txt.gz
Temp
20 20 20 21 21 21 22 22 21 21 20 19 19 19 19 19 19 20 20 20 20 20 19 19 19 19 18 18 18 19 20 19
21 21 20 19 19 20 21 21 21 20 20 20 19 19 19 19 20 20 20 20 20 20 19 19 19 19 18 19 19 19 21 20
21 21 20 20 19 19 20 20 20 20 19 20 19 20 19 19 20 20 20 20 20 20 19 19 19 18 18 19 19 21 21 21
21 20 20 20 21 19 19 19 19 20 19 18 21 20 21 21 20 20 20 20 20 20 19 19 19 19 18 18 21 21 21 21
20 20 20 20 21 20 21 20 21 20 20 20 21 20 20 20 20 19 19 19 19 19 19 20 21 21 20 20 20 20 21 21
18 20 20 18 21 20 21 21 21 21 20 19 20 20 20 21 21 21 20 20 21 21 21 21 20 20 20 20 20 21 21 21
15 17 18 19 19 21 21 21 21 21 20 19 20 21 20 21 21 21 21 21 21 21 22 21 20 20 20 20 20 20 20 21
15 15 17 18 19 19 20 20 21 20 20 20 19 20 21 20 21 20 21 21 21 21 22 21 21 21 20 20 20 20 20 20
15 15 15 17 18 19 18 19 20 20 20 19 19 19 20 20 21 21 21 21 20 20 20 21 22 21 21 20 21 20 20 20
14 14 14 14 17 17 18 18 19 20 20 20 18 19 19 19 21 21 21 21 20 20 20 21 21 21 22 22 21 21 20 20
13 14 14 13 16 17 17 18 18 19 19 19 18 18 19 19 21 21 20 21 21 20 20 21 21 21 22 22 22 22 21 21
13 13 13 13 12 16 17 17 18 18 19 18 18 18 18 18 20 21 20 21 21 21 21 21 21 22 22 23 22 21 21 21
13 13 12 13 14 12 14 16 15 17 18 17 17 17 18 18 19 20 20 21 21 21 20 20 20 21 22 22 22 21 21 21
12 12 12 12 12 13 11 11 15 16 17 17 17 17 17 17 18 19 20 20 20 20 20 20 21 21 21 23 24 23 22 21
12 12 12 12 11 13 13 13 13 15 16 17 17 17 17 17 17 18 19 19 20 19 19 20 21 21 20 23 24 25 26 24
12 12 12 11 11 11 12 13 13 12 12 13 15 17 17 17 17 17 18 19 19 20 19 19 20 22 21 20 22 24 26 26
11 11 12 11 10 10 11 11 11 10 11 12 13 15 16 17 17 16 16 17 18 18 19 19 20 20 22 21 21 22 22 23
11 11 12 11 10 10 10 10 10 11 10 11 11 12 14 16 17 17 16 16 17 17 18 18 18 20 20 22 22 22 22 23
12 11 11 11 10 10 10 10 10 11 10 9 10 10 11 13 14 16 16 16 17 17 17 17 18 18 19 20 21 22 22 23
11 11 11 11 10 10 10 9 10 10 10 9 9 10 10 11 12 13 16 16 16 16 16 17 17 17 18 18 20 21 21 22

GFSFLT2_925_temp_288.txt.gz
Temp
21 20 21 21 21 21 21 21 20 20 20 19 19 19 18 19 18 18 19 19 19 18 18 18 18 19 20 21 21 21 21 20
22 22 21 20 21 20 20 21 21 20 20 20 19 19 19 19 19 19 19 19 19 18 18 18 18 19 20 21 21 21 21 21
21 20 21 21 20 21 20 20 20 20 20 20 20 19 20 19 19 20 20 19 18 18 19 19 19 20 21 21 21 22 22 21
19 20 21 21 21 21 20 19 20 20 20 20 20 20 20 20 20 20 20 20 19 19 19 19 20 21 21 21 22 22 23 21
18 18 19 20 20 19 21 21 21 21 21 21 21 21 21 21 21 21 20 20 20 20 20 20 21 20 22 22 22 23 23 21
17 18 18 19 19 20 21 21 22 22 22 21 21 22 22 22 22 21 21 21 20 21 20 21 21 22 22 22 22 22 23 22
17 17 16 16 17 19 20 21 21 22 23 22 21 22 22 22 22 22 22 22 22 22 22 22 22 22 22 22 22 22 23 21
17 17 16 16 17 17 18 19 20 21 22 23 22 22 22 22 22 23 23 23 23 23 23 23 23 23 22 22 22 22 22 22
16 17 16 15 16 16 16 18 19 20 20 21 22 22 22 22 22 23 23 23 23 24 23 23 23 23 23 22 22 22 22 22
16 16 15 15 16 16 17 17 16 17 19 19 21 21 21 22 22 22 23 23 23 23 23 23 23 23 24 24 22 23 22 22
15 15 15 15 15 16 17 17 16 16 16 16 17 19 20 21 21 22 22 23 23 23 22 22 23 23 23 23 24 23 23 23
15 15 15 15 15 15 16 16 16 17 15 14 15 16 17 18 19 21 22 22 23 23 23 22 22 23 23 24 24 23 23 23
15 15 14 14 14 15 15 15 16 17 15 15 15 14 14 15 16 17 20 21 22 23 23 22 22 22 23 23 24 24 23 23
15 15 14 13 13 14 14 14 15 16 15 14 13 12 13 15 15 16 16 19 20 22 22 22 22 22 22 22 19 22 24 23
15 14 14 13 13 13 13 13 14 14 14 15 14 12 12 13 13 14 16 16 19 20 21 22 22 22 22 22 19 19 23 24
14 14 14 13 13 12 12 12 13 13 13 13 14 13 13 12 12 12 13 15 17 17 19 21 21 21 21 22 22 22 19 19
14 14 14 13 13 12 12 12 12 12 13 13 13 13 12 12 12 12 13 12 13 14 17 18 20 20 21 22 21 21 21 20
14 14 14 13 12 12 12 11 12 12 12 12 12 12 12 12 12 12 12 12 12 13 15 15 16 19 20 20 21 21 20 20
14 14 14 13 12 12 12 11 11 11 11 11 12 11 11 11 11 11 11 12 12 12 13 14 15 16 15 17 20 21 22 21
14 13 13 13 12 11 11 11 11 11 10 11 11 11 10 10 10 10 11 11 11 11 12 12 13 14 14 14 14 18 20 21